| time (UTC) | temp F | wind direction | speed MPH | gust MPH | rain 1hr in | rain 24hr in | rain mn in | humidity % | barometer mb |
| 20260831030050 | 76 | 0 | 0.0 | 0.0 | 0.00 | 0.00 | 0.00 | 93 | 1019.3 |
| 20260831024548 | 76 | 0 | 0.0 | 1.0 | 0.00 | 0.00 | 0.00 | 93 | 1019.2 |
| 20260831023059 | 77 | 0 | 0.0 | 0.0 | 0.00 | 0.00 | 0.00 | 92 | 1019.2 |
| 20260831021553 | 77 | 0 | 0.0 | 0.0 | 0.00 | 0.00 | 0.00 | 91 | 1019.1 |
| 20260831020107 | 78 | 0 | 0.0 | 0.0 | 0.00 | 0.00 | 0.00 | 91 | 1018.9 |
| 20260831014550 | 79 | 0 | 0.0 | 0.0 | 0.00 | 0.00 | 0.00 | 90 | 1018.7 |
| 20260831013053 | 79 | 0 | 0.0 | 1.0 | 0.00 | 0.00 | 0.00 | 90 | 1018.5 |
| 20260831011548 | 80 | 0 | 0.0 | 1.0 | 0.00 | 0.00 | 0.00 | 89 | 1018.4 |
| 20260831010051 | 81 | 0 | 0.0 | 0.0 | 0.00 | 0.00 | 0.00 | 87 | 1018.3 |
| 20260831004553 | 82 | 0 | 0.0 | 1.0 | 0.00 | 0.00 | 0.00 | 86 | 1018.3 |
| 20260831003053 | 83 | 0 | 0.0 | 1.0 | 0.00 | 0.00 | 0.00 | 83 | 1018.4 |
| 20260831001548 | 84 | 0 | 0.0 | 1.0 | 0.00 | 0.00 | 0.00 | 82 | 1018.3 |
| 20260831000112 | 86 | 0 | 0.0 | 1.0 | 0.00 | 0.00 | 0.00 | 79 | 1018.2 |
| 20260830234554 | 87 | 0 | 0.0 | 1.0 | 0.00 | 0.00 | 0.00 | 76 | 1018.3 |
| 20260830233051 | 88 | 70 | 0.0 | 2.0 | 0.00 | 0.00 | 0.00 | 70 | 1018.3 |
| 20260830231548 | 89 | 69 | 1.0 | 4.0 | 0.00 | 0.00 | 0.00 | 68 | 1018.2 |
| 20260830230048 | 90 | 37 | 1.0 | 6.0 | 0.00 | 0.00 | 0.00 | 66 | 1018.3 |
| 20260830224549 | 90 | 53 | 2.0 | 6.0 | 0.00 | 0.00 | 0.00 | 64 | 1018.2 |
| 20260830223048 | 90 | 44 | 2.0 | 5.0 | 0.00 | 0.00 | 0.00 | 63 | 1018.2 |
| 20260830221557 | 90 | 58 | 2.0 | 5.0 | 0.00 | 0.00 | 0.00 | 64 | 1018.1 |
| 20260830220054 | 90 | 46 | 2.0 | 5.0 | 0.00 | 0.00 | 0.00 | 65 | 1018.2 |
| 20260830214548 | 90 | 43 | 2.0 | 7.0 | 0.00 | 0.00 | 0.00 | 65 | 1018.2 |
| 20260830213051 | 90 | 345 | 4.0 | 8.0 | 0.00 | 0.00 | 0.00 | 64 | 1018.2 |
| 20260830211552 | 90 | 51 | 4.0 | 8.0 | 0.00 | 0.00 | 0.00 | 63 | 1018.3 |
| 20260830210048 | 90 | 27 | 3.0 | 7.0 | 0.00 | 0.00 | 0.00 | 64 | 1018.4 |
| 20260830204554 | 90 | 49 | 3.0 | 9.0 | 0.00 | 0.00 | 0.00 | 63 | 1018.5 |
| 20260830203051 | 91 | 51 | 1.0 | 7.0 | 0.00 | 0.00 | 0.00 | 63 | 1018.7 |
| 20260830201547 | 91 | 305 | 4.0 | 9.0 | 0.00 | 0.00 | 0.00 | 62 | 1019.0 |
| 20260830200048 | 91 | 31 | 3.0 | 8.0 | 0.00 | 0.00 | 0.00 | 63 | 1019.1 |
| 20260830194603 | 92 | 34 | 2.0 | 9.0 | 0.00 | 0.00 | 0.00 | 61 | 1019.3 |
| 20260830193049 | 92 | 347 | 3.0 | 8.0 | 0.00 | 0.00 | 0.00 | 62 | 1019.5 |
| 20260830191556 | 91 | 50 | 3.0 | 8.0 | 0.00 | 0.00 | 0.00 | 63 | 1019.6 |
| 20260830184558 | 90 | 9 | 2.0 | 8.0 | 0.00 | 0.00 | 0.00 | 65 | 1019.9 |
| 20260830183052 | 91 | 47 | 4.0 | 11.0 | 0.00 | 0.00 | 0.00 | 64 | 1020.2 |
| 20260830181549 | 90 | 35 | 4.0 | 9.0 | 0.00 | 0.00 | 0.00 | 65 | 1020.3 |
| 20260830180054 | 91 | 334 | 3.0 | 10.0 | 0.00 | 0.00 | 0.00 | 64 | 1020.4 |
| 20260830174606 | 90 | 28 | 1.0 | 8.0 | 0.00 | 0.00 | 0.00 | 68 | 1020.5 |
| 20260830173114 | 89 | 51 | 3.0 | 8.0 | 0.00 | 0.00 | 0.00 | 68 | 1020.6 |
| 20260830171553 | 90 | 333 | 4.0 | 9.0 | 0.00 | 0.00 | 0.00 | 68 | 1020.7 |
| 20260830170050 | 89 | 349 | 4.0 | 10.0 | 0.00 | 0.00 | 0.00 | 70 | 1020.8 |
| 20260830164551 | 88 | 30 | 3.0 | 8.0 | 0.00 | 0.00 | 0.00 | 71 | 1020.9 |
| 20260830163050 | 88 | 359 | 2.0 | 8.0 | 0.00 | 0.00 | 0.00 | 72 | 1021.0 |
| 20260830161601 | 87 | 18 | 3.0 | 8.0 | 0.00 | 0.00 | 0.00 | 74 | 1021.0 |
| 20260830160104 | 86 | 30 | 4.0 | 8.0 | 0.00 | 0.00 | 0.00 | 75 | 1021.1 |
| 20260830154552 | 85 | 342 | 3.0 | 9.0 | 0.00 | 0.00 | 0.00 | 78 | 1021.0 |
| 20260830153052 | 85 | 50 | 4.0 | 10.0 | 0.00 | 0.00 | 0.00 | 76 | 1021.0 |
| 20260830151602 | 84 | 87 | 2.0 | 9.0 | 0.00 | 0.00 | 0.00 | 78 | 1020.9 |
| 20260830150049 | 83 | 347 | 2.0 | 8.0 | 0.00 | 0.00 | 0.00 | 80 | 1020.9 |
| 20260830144600 | 82 | 292 | 4.0 | 8.0 | 0.00 | 0.00 | 0.00 | 81 | 1021.0 |
| 20260830143048 | 81 | 48 | 2.0 | 8.0 | 0.00 | 0.00 | 0.00 | 82 | 1020.9 |
| 20260830141545 | 80 | 319 | 3.0 | 8.0 | 0.00 | 0.00 | 0.00 | 84 | 1020.9 |
| 20260830140108 | 78 | 16 | 4.0 | 8.0 | 0.00 | 0.00 | 0.00 | 86 | 1021.0 |
| 20260830134556 | 77 | 40 | 2.0 | 6.0 | 0.00 | 0.00 | 0.00 | 88 | 1021.0 |
| 20260830133048 | 76 | 46 | 2.0 | 5.0 | 0.00 | 0.00 | 0.00 | 90 | 1021.0 |
| 20260830131557 | 75 | 38 | 1.0 | 5.0 | 0.00 | 0.00 | 0.00 | 91 | 1020.9 |
| 20260830124550 | 71 | 0 | 0.0 | 0.0 | 0.00 | 0.00 | 0.00 | 98 | 1020.7 |
| 20260830123051 | 69 | 0 | 0.0 | 0.0 | 0.00 | 0.00 | 0.00 | 98 | 1020.8 |
| 20260830121546 | 68 | 0 | 0.0 | 0.0 | 0.00 | 0.00 | 0.00 | 98 | 1020.5 |
| 20260830120050 | 67 | 0 | 0.0 | 0.0 | 0.00 | 0.00 | 0.00 | 98 | 1020.5 |
| 20260830114555 | 67 | 0 | 0.0 | 0.0 | 0.00 | 0.00 | 0.00 | 98 | 1020.4 |
| 20260830113050 | 67 | 0 | 0.0 | 0.0 | 0.00 | 0.00 | 0.00 | 98 | 1020.1 |
| 20260830111549 | 67 | 0 | 0.0 | 0.0 | 0.00 | 0.00 | 0.00 | 98 | 1019.8 |
| 20260830110051 | 67 | 0 | 0.0 | 0.0 | 0.00 | 0.00 | 0.00 | 98 | 1019.7 |
| 20260830104555 | 67 | 0 | 0.0 | 0.0 | 0.00 | 0.00 | 0.00 | 98 | 1019.8 |
| 20260830103050 | 67 | 0 | 0.0 | 0.0 | 0.00 | 0.00 | 0.00 | 97 | 1019.8 |
| 20260830101547 | 67 | 0 | 0.0 | 0.0 | 0.00 | 0.00 | 0.00 | 97 | 1019.7 |
| 20260830100058 | 67 | 0 | 0.0 | 0.0 | 0.00 | 0.00 | 0.00 | 97 | 1019.6 |
| 20260830094550 | 67 | 0 | 0.0 | 0.0 | 0.00 | 0.00 | 0.00 | 97 | 1019.6 |
| 20260830093057 | 67 | 0 | 0.0 | 0.0 | 0.00 | 0.00 | 0.00 | 97 | 1019.4 |
| 20260830091556 | 67 | 0 | 0.0 | 0.0 | 0.00 | 0.00 | 0.00 | 97 | 1019.5 |
| 20260830090048 | 67 | 0 | 0.0 | 0.0 | 0.00 | 0.00 | 0.00 | 97 | 1019.5 |
| 20260830084559 | 67 | 0 | 0.0 | 0.0 | 0.00 | 0.00 | 0.00 | 97 | 1019.5 |
| 20260830083053 | 67 | 0 | 0.0 | 0.0 | 0.00 | 0.00 | 0.00 | 96 | 1019.5 |
| 20260830081548 | 67 | 0 | 0.0 | 0.0 | 0.00 | 0.00 | 0.00 | 96 | 1019.5 |
| 20260830080049 | 67 | 0 | 0.0 | 0.0 | 0.00 | 0.00 | 0.00 | 96 | 1019.4 |
| 20260830074600 | 67 | 0 | 0.0 | 0.0 | 0.00 | 0.00 | 0.00 | 96 | 1019.6 |
| 20260830073050 | 68 | 0 | 0.0 | 0.0 | 0.00 | 0.00 | 0.00 | 96 | 1019.5 |
| 20260830071547 | 68 | 0 | 0.0 | 0.0 | 0.00 | 0.00 | 0.00 | 96 | 1019.6 |
| 20260830070048 | 68 | 0 | 0.0 | 0.0 | 0.00 | 0.00 | 0.00 | 96 | 1019.7 |
| 20260830064605 | 68 | 0 | 0.0 | 0.0 | 0.00 | 0.00 | 0.00 | 96 | 1019.5 |
| 20260830063053 | 68 | 0 | 0.0 | 0.0 | 0.00 | 0.00 | 0.00 | 96 | 1019.7 |
| 20260830061547 | 69 | 0 | 0.0 | 0.0 | 0.00 | 0.00 | 0.00 | 95 | 1019.9 |
| 20260830060054 | 69 | 0 | 0.0 | 0.0 | 0.00 | 0.00 | 0.00 | 95 | 1019.8 |
| 20260830054555 | 69 | 0 | 0.0 | 1.0 | 0.00 | 0.00 | 0.00 | 95 | 1019.8 |
| 20260830053052 | 69 | 0 | 0.0 | 0.0 | 0.00 | 0.00 | 0.00 | 94 | 1019.8 |
| 20260830051548 | 70 | 0 | 0.0 | 0.0 | 0.00 | 0.00 | 0.00 | 94 | 1019.8 |
| 20260830050053 | 70 | 0 | 0.0 | 0.0 | 0.00 | 0.00 | 0.00 | 94 | 1019.7 |
| 20260830044605 | 71 | 0 | 0.0 | 0.0 | 0.00 | 0.00 | 0.00 | 93 | 1019.8 |
| 20260830043049 | 71 | 0 | 0.0 | 1.0 | 0.00 | 0.00 | 0.00 | 93 | 1019.6 |
| 20260830041602 | 71 | 0 | 0.0 | 0.0 | 0.00 | 0.00 | 0.00 | 93 | 1019.6 |
| 20260830040100 | 72 | 45 | 0.0 | 1.0 | 0.00 | 0.00 | 0.00 | 93 | 1019.6 |
| 20260830034550 | 72 | 0 | 0.0 | 1.0 | 0.00 | 0.00 | 0.00 | 92 | 1019.5 |
| 20260830033104 | 72 | 0 | 0.0 | 0.0 | 0.00 | 0.00 | 0.00 | 92 | 1019.6 |
| 20260830031604 | 73 | 0 | 0.0 | 1.0 | 0.00 | 0.00 | 0.00 | 91 | 1019.4 |